TimeCST,TemperatureF,Dew PointF,Humidity,Sea Level PressureIn,VisibilityMPH,Wind Direction,Wind SpeedMPH,Gust SpeedMPH,PrecipitationIn,Events,Conditions,WindDirDegrees,DateUTC
12:15 AM,61.0,61.0,100,29.92,0.2,Calm,Calm,-,N/A,Fog,Fog,0,2012-12-08 06:15:00
12:35 AM,60.8,60.8,100,29.92,0.2,Calm,Calm,-,N/A,Fog,Fog,0,2012-12-08 06:35:00
12:55 AM,60.1,60.1,100,29.92,0.2,Calm,Calm,-,N/A,Fog,Fog,0,2012-12-08 06:55:00
1:15 AM,59.4,59.4,100,29.91,0.2,Calm,Calm,-,N/A,Fog,Fog,0,2012-12-08 07:15:00
1:35 AM,58.6,58.6,100,29.91,0.2,Calm,Calm,-,N/A,Fog,Fog,0,2012-12-08 07:35:00
1:55 AM,58.6,58.6,100,29.91,0.2,Calm,Calm,-,N/A,Fog,Fog,0,2012-12-08 07:55:00
2:15 AM,57.4,57.4,100,29.92,0.2,Calm,Calm,-,N/A,Fog,Fog,0,2012-12-08 08:15:00
2:55 AM,55.9,55.9,100,29.92,0.5,Calm,Calm,-,N/A,Fog,Fog,0,2012-12-08 08:55:00
3:15 AM,55.0,55.0,100,29.92,1.0,Calm,Calm,-,N/A,,Overcast,0,2012-12-08 09:15:00
3:35 AM,54.9,54.9,100,29.93,0.8,Calm,Calm,-,N/A,,Overcast,0,2012-12-08 09:35:00
3:55 AM,55.0,55.0,100,29.93,4.0,Calm,Calm,-,N/A,,Mostly Cloudy,0,2012-12-08 09:55:00
4:15 AM,54.7,54.7,100,29.93,2.5,Calm,Calm,-,N/A,,Scattered Clouds,0,2012-12-08 10:15:00
4:35 AM,54.0,54.0,100,29.93,1.0,Calm,Calm,-,N/A,,Mostly Cloudy,0,2012-12-08 10:35:00
4:55 AM,53.6,53.6,100,29.93,0.5,Calm,Calm,-,N/A,Fog,Fog,0,2012-12-08 10:55:00
5:15 AM,53.6,53.6,100,29.95,1.0,Calm,Calm,-,N/A,,Overcast,0,2012-12-08 11:15:00
5:35 AM,53.2,53.2,100,29.95,0.5,Calm,Calm,-,N/A,Fog,Fog,0,2012-12-08 11:35:00
5:55 AM,54.0,54.0,100,29.96,0.5,Calm,Calm,-,N/A,Fog,Fog,0,2012-12-08 11:55:00
6:15 AM,53.6,53.6,100,29.96,0.5,Calm,Calm,-,N/A,Fog,Fog,0,2012-12-08 12:15:00
6:35 AM,53.8,53.8,100,29.96,0.8,Calm,Calm,-,N/A,,Overcast,0,2012-12-08 12:35:00
6:55 AM,53.6,53.6,100,29.96,4.0,Calm,Calm,-,N/A,,Mostly Cloudy,0,2012-12-08 12:55:00
7:15 AM,54.0,54.0,100,29.96,3.0,Calm,Calm,-,N/A,,Overcast,0,2012-12-08 13:15:00
7:35 AM,55.0,55.0,100,29.97,3.0,North,-9999.0,-,N/A,,Mostly Cloudy,0,2012-12-08 13:35:00
7:55 AM,57.0,56.8,99,29.97,4.0,Calm,Calm,-,N/A,,Scattered Clouds,0,2012-12-08 13:55:00
8:15 AM,58.1,58.1,100,29.98,5.0,Calm,Calm,-,N/A,,Clear,0,2012-12-08 14:15:00
8:35 AM,60.4,60.3,99,29.98,7.0,Calm,Calm,-,N/A,,Clear,0,2012-12-08 14:35:00
8:55 AM,62.6,61.7,97,29.98,7.0,Calm,Calm,-,N/A,,Clear,0,2012-12-08 14:55:00
9:15 AM,64.0,61.9,93,29.99,7.0,Calm,Calm,-,N/A,,Clear,0,2012-12-08 15:15:00
9:35 AM,66.0,61.7,86,29.99,10.0,SE,4.6,-,N/A,,Clear,140,2012-12-08 15:35:00
9:55 AM,68.5,60.3,75,29.99,10.0,SSE,3.5,-,N/A,,Clear,160,2012-12-08 15:55:00
10:15 AM,69.8,57.6,65,29.99,10.0,South,3.5,-,N/A,,Clear,170,2012-12-08 16:15:00
10:35 AM,70.7,56.3,60,29.99,10.0,SSE,5.8,-,N/A,,Clear,150,2012-12-08 16:35:00
10:55 AM,72.3,51.6,48,29.98,10.0,South,6.9,-,N/A,,Clear,190,2012-12-08 16:55:00
11:15 AM,72.5,54.5,53,29.97,10.0,SSW,3.5,-,N/A,,Clear,200,2012-12-08 17:15:00
11:35 AM,73.4,55.6,54,29.96,10.0,South,5.8,-,N/A,,Clear,170,2012-12-08 17:35:00
11:55 AM,73.4,56.3,55,29.95,10.0,South,5.8,-,N/A,,Clear,170,2012-12-08 17:55:00
12:15 PM,73.8,57.4,56,29.94,10.0,South,3.5,-,N/A,,Clear,190,2012-12-08 18:15:00
12:35 PM,74.5,56.7,54,29.94,10.0,Calm,Calm,-,N/A,,Clear,0,2012-12-08 18:35:00
12:55 PM,75.6,56.5,51,29.93,10.0,Calm,Calm,-,N/A,,Clear,0,2012-12-08 18:55:00
1:15 PM,75.9,58.1,54,29.92,10.0,South,8.1,-,N/A,,Clear,190,2012-12-08 19:15:00
1:35 PM,76.1,58.1,54,29.92,10.0,South,4.6,-,N/A,,Clear,180,2012-12-08 19:35:00
1:55 PM,75.2,59.2,57,29.91,10.0,SSW,3.5,-,N/A,,Scattered Clouds,200,2012-12-08 19:55:00
2:15 PM,75.7,60.8,60,29.91,10.0,SSE,4.6,-,N/A,,Scattered Clouds,160,2012-12-08 20:15:00
2:35 PM,75.6,60.3,59,29.90,10.0,Calm,Calm,-,N/A,,Scattered Clouds,0,2012-12-08 20:35:00
2:55 PM,76.1,60.4,58,29.90,10.0,South,4.6,-,N/A,,Clear,170,2012-12-08 20:55:00
3:15 PM,76.1,59.9,57,29.91,10.0,SSW,6.9,-,N/A,,Clear,200,2012-12-08 21:15:00
3:35 PM,76.1,60.6,59,29.91,10.0,South,6.9,-,N/A,,Clear,180,2012-12-08 21:35:00
3:55 PM,75.6,60.6,60,29.91,10.0,SSW,8.1,-,N/A,,Clear,200,2012-12-08 21:55:00
4:15 PM,75.2,60.3,60,29.91,10.0,SSW,4.6,-,N/A,,Clear,200,2012-12-08 22:15:00
4:35 PM,74.3,60.6,62,29.92,10.0,SSW,4.6,-,N/A,,Scattered Clouds,200,2012-12-08 22:35:00
4:55 PM,73.4,60.4,64,29.92,10.0,Calm,Calm,-,N/A,,Clear,0,2012-12-08 22:55:00
5:15 PM,70.7,60.8,71,29.92,10.0,Calm,Calm,-,N/A,,Clear,0,2012-12-08 23:15:00
5:35 PM,68.9,61.0,76,29.92,10.0,Calm,Calm,-,N/A,,Clear,0,2012-12-08 23:35:00
5:55 PM,68.2,60.8,77,29.93,10.0,South,3.5,-,N/A,,Clear,190,2012-12-08 23:55:00
6:15 PM,67.5,60.4,78,29.94,10.0,Calm,Calm,-,N/A,,Clear,0,2012-12-09 00:15:00
6:35 PM,68.2,60.1,75,29.95,10.0,South,3.5,-,N/A,,Clear,190,2012-12-09 00:35:00
6:55 PM,66.4,59.9,80,29.95,10.0,Calm,Calm,-,N/A,,Clear,0,2012-12-09 00:55:00
7:15 PM,64.6,59.9,85,29.95,10.0,Calm,Calm,-,N/A,,Clear,0,2012-12-09 01:15:00
7:35 PM,66.0,59.0,78,29.96,10.0,Calm,Calm,-,N/A,,Clear,0,2012-12-09 01:35:00
7:55 PM,63.7,59.2,85,29.96,10.0,Calm,Calm,-,N/A,,Clear,0,2012-12-09 01:55:00
8:15 PM,63.1,59.0,86,29.96,10.0,Calm,Calm,-,N/A,,Clear,0,2012-12-09 02:15:00
8:35 PM,63.5,58.1,83,29.96,10.0,Calm,Calm,-,N/A,,Clear,0,2012-12-09 02:35:00
8:55 PM,64.9,59.0,81,29.96,10.0,SSE,3.5,-,N/A,,Clear,160,2012-12-09 02:55:00
9:15 PM,63.9,59.0,84,29.96,10.0,South,4.6,-,N/A,,Clear,170,2012-12-09 03:15:00
9:35 PM,64.0,60.3,87,29.96,10.0,South,4.6,-,N/A,,Clear,170,2012-12-09 03:35:00
9:55 PM,64.4,60.8,88,29.97,10.0,Calm,Calm,-,N/A,,Clear,0,2012-12-09 03:55:00
10:15 PM,63.0,60.3,91,29.97,10.0,Calm,Calm,-,N/A,,Clear,0,2012-12-09 04:15:00
10:35 PM,63.1,60.4,91,29.97,10.0,Calm,Calm,-,N/A,,Clear,0,2012-12-09 04:35:00
10:55 PM,63.7,60.8,90,29.97,10.0,Calm,Calm,-,N/A,,Clear,0,2012-12-09 04:55:00
11:15 PM,62.1,59.7,92,29.97,10.0,Calm,Calm,-,N/A,,Clear,0,2012-12-09 05:15:00
11:35 PM,62.8,60.8,93,29.96,10.0,Calm,Calm,-,N/A,,Clear,0,2012-12-09 05:35:00
11:55 PM,61.9,60.4,95,29.96,10.0,South,3.5,-,N/A,,Clear,190,2012-12-09 05:55:00